Location: PSU-Greenbush Astrophysical Observatory
(37.5140°N, 94.9880°W)
Time: 09:14:39
(UTC-06:00)

Altair - Pass Details

Date: 27 January 2020
Orbit: 1502 x 1682 km, 47.2° (Epoch: 25 February)

Event Time Altitude Azimuth Distance (km) Brightness Sun altitude
Rises 13:01:54 0° 297° (WNW) 4,935 10.0 33.6°
Reaches altitude 10° 13:05:09 10° 301° (WNW) 3,948 9.5 33.5°
Maximum altitude 13:15:16 65° 23° (NNE) 1,809 8.1 33.2°
Drops below altitude 10° 13:25:09 10° 104° (ESE) 3,868 9.7 32.7°
Sets 13:28:17 0° 107° (ESE) 4,831 10.1 32.5°
